Notices

What's New in latest Release from April 7th, 2021:

- Updated Glossary, including Speed of Maximum Gust, and Total Hourly Precipitation

- Updated national and regional climate services offices contacts and prices information

- Addition of station inventory lists for 1981-2010, 1971-2000, and 1961-1990 Normals.

If you haven't already, please take our survey and provide feedback about our website: https://eccc.sondage-survey.ca/f/LanguageSelection.aspx?s=442ca660-fcf1-47c0-95a9-59707d6fd709

Hourly Data Report for July 02, 2019

TORONTO CITY
ONTARIO
Current Station Operator: ECCC - MSC

43°40'00.000" N
79°24'00.000" W
112.50 m
6158355
71508
XTO

Download Data

Hourly Data (July 2019)
Hourly Data Report for July 2, 2019
TIME
LST
Temp Definition
°C
Dew Point Definition
°C
Rel Hum Definition
%
Precip. Amount Definition
mm

Wind Dir Definition
10's deg

Wind Spd Definition
km/h
Visibility Definition
km
Stn Press Definition
kPa
Hmdx Definition


Wind Chill Definition


Weather Definition


00:00 22.2 16.0 68 0.0       99.74 27   LegendNANA
01:00 21.9 15.3 66 0.0       99.70 26   LegendNANA
02:00 21.5 15.4 68 0.0       99.68 26   LegendNANA
03:00 21.2 16.7 75 0.0       99.67 26   LegendNANA
04:00 21.4 16.7 75 0.0       99.65 26   LegendNANA
05:00 22.4 18.0 76 0.0       99.63 28   LegendNANA
06:00 22.3 17.4 74 0.0       99.67 28   LegendNANA
07:00 22.3 16.8 71 0.0       99.69 27   LegendNANA
08:00 22.8 16.5 68 0.0       99.71 28   LegendNANA
09:00 23.7 16.1 62 0.0       99.73 28   LegendNANA
10:00 23.7 16.4 64 0.0       99.76 29   LegendNANA
11:00 24.3 17.1 64 0.0       99.79 30   LegendNANA
12:00 25.7 17.8 62 0.0       99.79 32   LegendNANA
13:00 24.3 18.0 68 0.0       99.74 30   LegendNANA
14:00 25.2 17.7 63 0.0       99.69 31   LegendNANA
15:00 24.9 17.5 63 0.0       99.68 31   LegendNANA
16:00 24.4 17.5 66 0.0       99.62 30   LegendNANA
17:00 24.4 17.0 63 0.0       99.57 30   LegendNANA
18:00 24.6 17.7 65 0.0       99.53 30   LegendNANA
19:00 23.9 17.6 68 0.0       99.56 30   LegendNANA
20:00 23.6 17.6 69 0.0       99.54 29   LegendNANA
21:00 23.3 17.7 71 0.0       99.57 29   LegendNANA
22:00 23.9 17.4 67 0.0       99.60 29   LegendNANA
23:00 21.8 17.2 75 0.0       99.65 27   LegendNANA

Notes on Data Quality.

Legend

  • E = Estimated
  • M = Missing
  • NA = Not Available*
  • [empty] = Indicates an unobserved value
Date modified: